Terminal Aerodrome Forecast
Issued by NWS Quad Cities IA IL

Home | Current Version | Previous Version | Text Only | Print | Product List | Glossary On
Versions: 1 2 3 4 5 6 7 8 9 10 11 12 13 14 15 16 17 18 19 20 21 22 23 24 25 26
000
FTUS43 KDVN 071401 AAC
TAFDBQ
TAF AMD
KDBQ 071401Z 0714/0812 02008KT 2SM HZ OVC008
     FM071600 01010G17KT P6SM BKN050
     FM080100 04006KT P6SM SKC=

USA.gov is the U.S. government's official web portal to all federal, state and local government web resources and services.